TimeHST,TemperatureF,Dew PointF,Humidity,Sea Level PressureIn,VisibilityMPH,Wind Direction,Wind SpeedMPH,Gust SpeedMPH,PrecipitationIn,Events,Conditions,WindDirDegrees,DateUTC
12:53 AM,73.9,64.0,71,30.09,10.0,ENE,12.7,-,N/A,,Scattered Clouds,60,2014-04-04 10:53:00
1:53 AM,73.9,64.0,71,30.07,10.0,ENE,12.7,-,N/A,,Scattered Clouds,60,2014-04-04 11:53:00
2:53 AM,73.9,63.0,68,30.05,10.0,ENE,11.5,-,N/A,,Partly Cloudy,60,2014-04-04 12:53:00
3:53 AM,73.9,63.0,68,30.04,10.0,ENE,10.4,-,N/A,,Partly Cloudy,60,2014-04-04 13:53:00
4:53 AM,73.9,62.1,66,30.04,10.0,NE,13.8,-,N/A,,Partly Cloudy,50,2014-04-04 14:53:00
5:53 AM,73.0,62.1,68,30.04,10.0,ENE,10.4,18.4,N/A,,Partly Cloudy,60,2014-04-04 15:53:00
6:53 AM,73.9,62.1,66,30.05,10.0,NE,11.5,21.9,N/A,,Scattered Clouds,50,2014-04-04 16:53:00
7:53 AM,77.0,62.1,60,30.07,10.0,ENE,16.1,23.0,N/A,,Scattered Clouds,70,2014-04-04 17:53:00
8:53 AM,79.0,61.0,54,30.09,10.0,ENE,13.8,-,N/A,,Scattered Clouds,70,2014-04-04 18:53:00
9:53 AM,81.0,62.1,52,30.08,10.0,ENE,11.5,20.7,N/A,,Scattered Clouds,60,2014-04-04 19:53:00
10:53 AM,82.0,61.0,49,30.06,10.0,ENE,17.3,25.3,N/A,,Scattered Clouds,60,2014-04-04 20:53:00
11:53 AM,84.0,62.1,47,30.04,10.0,East,17.3,27.6,N/A,,Scattered Clouds,80,2014-04-04 21:53:00
12:53 PM,84.0,62.1,47,30.03,10.0,ENE,16.1,21.9,N/A,,Scattered Clouds,60,2014-04-04 22:53:00
1:53 PM,84.0,61.0,46,30.01,10.0,ENE,12.7,24.2,N/A,,Scattered Clouds,60,2014-04-04 23:53:00
2:53 PM,84.0,62.1,47,29.99,10.0,NE,16.1,26.5,N/A,,Scattered Clouds,50,2014-04-05 00:53:00
3:53 PM,82.9,63.0,51,29.99,10.0,NE,16.1,-,N/A,,Scattered Clouds,50,2014-04-05 01:53:00
4:53 PM,81.0,60.1,49,29.98,10.0,ENE,18.4,-,N/A,,Partly Cloudy,70,2014-04-05 02:53:00
5:53 PM,79.0,60.1,52,29.99,10.0,ENE,16.1,-,N/A,,Scattered Clouds,60,2014-04-05 03:53:00
6:53 PM,77.0,60.1,56,30.00,10.0,ENE,12.7,23.0,N/A,,Partly Cloudy,60,2014-04-05 04:53:00
7:53 PM,75.9,61.0,60,30.02,10.0,NE,11.5,19.6,N/A,,Clear,50,2014-04-05 05:53:00
8:53 PM,75.9,63.0,64,30.03,10.0,NE,10.4,-,N/A,,Partly Cloudy,50,2014-04-05 06:53:00
9:53 PM,75.0,63.0,66,30.05,10.0,ENE,8.1,-,N/A,,Partly Cloudy,60,2014-04-05 07:53:00
10:53 PM,75.0,62.1,64,30.05,10.0,NE,9.2,-,N/A,,Partly Cloudy,50,2014-04-05 08:53:00
11:53 PM,73.9,63.0,68,30.04,10.0,NE,6.9,-,N/A,,Partly Cloudy,50,2014-04-05 09:53:00